[[{"header":{"parameterUnit":"m.s-1","parameterCategory":1,"la1":30.2991,"la2":30.254,"lo1":-89.0895,"lo2":-89.0444,"dy":0.0017,"dx":0.0017,"nx":28,"ny":28,"refTime":"2024-07-20T09:00:00:Z","depth":0,"parameterNumber":2,"parameterNumberName":"U-component_of_WINDS"},"data":[0,0,0,0,0,0,0,0,0,0,0,0,0,0,0,0,0,0,0,0,0,0,0,0,0,0,0,0,0,0,0,0,0,0,0,0,0,0,0,0,0,0,0,0,0,0,0,0,0,0,0,0,0,0,0,0,0,0,2.7565,2.7566,0,2.7647,2.7648,2.7649,2.762,2.7618,2.7616,2.7614,2.7692,2.7696,2.77,0,0,0,0,0,0,0,0,0,0,0,0,0,2.7375,2.7379,2.7565,2.7566,2.7567,2.7647,2.7648,2.7649,2.762,2.7618,2.7616,2.7613,2.7691,2.7696,2.77,0,0,0,0,0,0,0,0,0,0,0,0,0,2.7457,2.738,2.7565,2.7562,2.7563,2.7647,2.7648,2.765,2.762,2.7618,2.7615,2.7612,2.769,2.7695,2.7701,2.7791,0,0,2.7718,2.7721,0,0,0,0,0,0,0,0,2.7453,2.7464,2.7562,2.7563,2.7563,2.7621,2.761,2.7697,2.7621,2.7598,2.7614,2.7611,2.767,2.7677,2.7699,2.7794,2.7798,2.7719,2.7722,2.7725,2.7726,0,0,0,0,0,0,0,2.7447,2.7461,2.7597,2.7563,2.7564,2.7554,2.7563,2.7626,2.7648,2.76,2.7598,2.7609,2.767,2.7693,2.77,2.7799,2.7718,2.7724,2.7727,2.7729,2.7967,2.797,0,0,0,0,0,0,2.7442,2.7456,2.7595,2.76,2.75,2.756,2.757,2.7605,2.7648,2.7652,2.7611,2.7607,2.7685,2.7694,2.7703,2.7807,2.7724,2.773,2.7733,2.7964,2.7968,2.7971,0,0,0,0,0,0,2.7438,2.7455,2.7591,2.7528,2.7544,2.7566,2.7606,2.7608,2.7631,2.7656,2.7659,2.7631,2.7683,2.7695,2.7768,2.781,2.7732,2.7737,2.7961,2.7966,2.797,2.8019,0,0,0,0,0,0,2.7433,2.7453,2.749,2.7529,2.7548,2.7658,2.7609,2.7611,2.7641,2.7637,2.7675,2.7679,2.7682,2.776,2.7774,2.7816,2.7742,2.7957,2.7963,2.7968,2.8014,2.8025,2.8034,0,0,0,0,0,2.7426,2.75,2.7492,2.7509,2.7594,2.7661,2.7671,2.7675,2.7645,2.768,2.7696,2.7678,2.7804,2.7768,2.7783,2.7828,2.7955,2.7961,2.7968,2.8009,2.8023,2.8034,0,0,0,0,0,0,2.7464,2.7505,2.7496,2.7586,2.762,2.7655,2.77,2.7689,2.7731,2.7725,2.7726,2.7734,2.7809,2.7826,2.7786,2.7915,2.7874,2.7884,2.7901,2.7913,2.7923,2.7916,2.7747,0,0,0,0,0,2.7483,2.7536,2.7568,2.7643,2.7661,2.7678,2.7707,2.7707,2.7741,2.7755,2.7776,2.7809,2.7855,2.7886,2.793,2.8017,2.8023,2.8055,2.8065,2.8073,2.8081,2.8124,2.8137,2.7993,2.7993,2.7993,0,0,2.7522,2.7551,2.7584,2.7652,2.7678,2.773,2.769,2.7747,2.7785,2.7763,2.7833,2.785,2.7886,2.7966,2.8002,2.7982,2.8122,2.8082,2.8088,2.8091,2.8132,2.8146,2.8158,2.7997,2.7996,2.7996,0,0,2.7618,2.7648,2.7712,2.774,2.7781,2.7791,2.7806,2.7844,2.7854,2.7925,2.7909,2.7952,2.8034,2.8059,2.8082,2.8187,2.8171,2.8201,2.8253,2.8295,2.8306,2.8316,2.835,2.8362,2.821,2.821,2.821,0,2.7661,2.7741,2.7746,2.7804,2.7832,2.7817,2.788,2.7906,2.7959,2.7977,2.7955,2.8055,2.8078,2.8162,2.8187,2.8208,2.8222,2.8196,2.8305,2.8315,2.8324,2.8356,2.8369,2.8213,2.8213,2.8212,2.8212,0,2.7789,2.7844,2.7891,2.7943,2.7977,2.8038,2.8049,2.8082,2.8079,2.809,2.8161,2.8189,2.8237,2.8257,2.8254,2.8339,2.8325,2.8304,2.8263,2.8341,2.837,2.8383,2.8217,2.8216,2.8215,2.8215,0,0,2.7911,2.7965,2.7981,2.8003,2.8047,2.8088,2.8147,2.8195,2.8222,2.8259,2.8305,2.8373,2.8353,2.838,2.838,2.8417,2.8493,2.8391,2.8392,2.8406,2.8584,2.8597,2.8611,2.8484,2.8487,2.8489,2.858,0,2.8008,2.8112,2.8118,2.8211,2.8259,2.8245,2.8295,2.8325,2.8338,2.8379,2.8391,2.8438,2.8411,2.8426,2.8463,2.8476,2.8528,2.847,2.8523,2.8525,2.8511,2.8628,2.8642,2.8727,2.8592,2.8594,2.8595,0,2.8136,2.8177,2.8275,2.8309,2.833,2.8375,2.8418,2.8459,2.8492,2.8498,2.8527,2.8521,2.8577,2.8536,2.8611,2.8572,2.8594,2.8603,2.8607,2.8609,2.8563,2.8629,2.8755,2.8766,2.8614,2.8613,2.8612,0,2.821,2.829,2.8358,2.8378,2.8421,2.8452,2.8471,2.8501,2.8529,2.8567,2.8584,2.8627,2.865,2.8682,2.8686,2.8657,2.876,2.8721,2.8763,2.8763,2.8783,2.8781,2.891,2.8804,2.8803,2.8803,2.8803,0,2.8316,2.8375,2.8392,2.8433,2.8498,2.8503,2.8567,2.8583,2.861,2.8652,2.8643,2.8682,2.8687,2.8727,2.873,2.879,2.8801,2.8804,2.8804,2.8804,2.8802,2.8815,2.8808,2.8807,2.8806,2.8805,2.8805,0,2.8408,2.8422,2.8495,2.8529,2.8539,2.8585,2.8613,2.8651,2.8663,2.8716,2.8728,2.8745,2.8791,2.8799,2.8854,2.8856,2.8926,2.8921,2.8915,2.8913,2.8953,2.8948,2.9092,2.911,2.8995,2.8996,2.8997,0,2.8474,2.8519,2.8558,2.8587,2.8607,2.8653,2.8681,2.8687,2.8717,2.8757,2.8789,2.8835,2.8871,2.8944,2.896,2.9,2.8994,2.9042,2.9,2.8997,2.899,2.8986,2.8989,2.9049,2.905,2.9051,2.9052,0,2.8586,2.8591,2.8633,2.8677,2.8712,2.8746,2.8779,2.8802,2.8812,2.8845,2.8893,2.8921,2.8976,2.902,2.906,2.9076,2.9064,2.9065,2.9077,2.9075,2.9068,2.9068,2.8933,2.9061,2.906,2.906,2.9059,2.9059,2.8665,2.8703,2.8736,2.8782,2.8808,2.8839,2.8875,2.8891,2.8932,2.8978,2.8978,2.9029,2.9058,2.9111,2.913,2.9168,2.9153,2.917,2.9174,2.9177,2.9179,2.9065,2.9176,2.9176,2.9175,2.9175,2.9175,0,2.8773,2.8794,2.8837,2.8883,2.8919,2.8908,2.8943,2.8972,2.9018,2.9047,2.9083,2.9136,2.9178,2.9197,2.9237,2.9264,2.9259,2.9274,2.927,2.9273,2.9193,2.9177,2.9277,2.9277,2.9277,2.9277,2.9277,2.9277,2.8834,2.8897,2.8905,2.898,2.8999,2.905,2.9071,2.9097,2.912,2.918,2.9216,2.9228,2.9252,2.9294,2.9331,2.9335,2.9349,2.9365,2.9366,2.929,2.9279,2.9269,2.9255,2.9369,2.9369,2.9443,2.9444,2.9444]},{"header":{"parameterUnit":"m.s-1","parameterCategory":1,"la1":30.2991,"la2":30.254,"lo1":-89.0895,"lo2":-89.0444,"dy":0.0017,"dx":0.0017,"nx":28,"ny":28,"refTime":"2024-07-20T09:00:00:Z","depth":0,"parameterNumber":3,"parameterNumberName":"V-component_of_WINDS"},"data":[0,0,0,0,0,0,0,0,0,0,0,0,0,0,0,0,0,0,0,0,0,0,0,0,0,0,0,0,0,0,0,0,0,0,0,0,0,0,0,0,0,0,0,0,0,0,0,0,0,0,0,0,0,0,0,0,0,0,1.9504,1.9505,0,1.959,1.9591,1.9592,1.9579,1.9577,1.9576,1.9574,1.9663,1.9666,1.967,0,0,0,0,0,0,0,0,0,0,0,0,0,1.9326,1.9329,1.9504,1.9505,1.9506,1.959,1.9591,1.9592,1.9579,1.9577,1.9575,1.9574,1.9662,1.9666,1.967,0,0,0,0,0,0,0,0,0,0,0,0,0,1.9407,1.933,1.9503,1.9509,1.9511,1.959,1.9591,1.9593,1.9579,1.9577,1.9575,1.9573,1.966,1.9666,1.9671,1.975,0,0,1.9688,1.9691,0,0,0,0,0,0,0,0,1.9402,1.9413,1.9507,1.9509,1.9511,1.9571,1.9561,1.9645,1.958,1.9553,1.9574,1.9572,1.9634,1.9642,1.9663,1.9754,1.9758,1.9689,1.9692,1.9694,1.9696,0,0,0,0,0,0,0,1.9396,1.9409,1.9538,1.9509,1.9511,1.9507,1.9516,1.9577,1.9605,1.9555,1.9555,1.9565,1.9635,1.9657,1.9665,1.9759,1.9688,1.9693,1.9697,1.9699,1.9917,1.9919,0,0,0,0,0,0,1.9389,1.9405,1.9535,1.954,1.945,1.9512,1.9522,1.9554,1.9604,1.961,1.9567,1.9564,1.9649,1.9658,1.9668,1.9762,1.9694,1.97,1.9703,1.9915,1.9918,1.992,0,0,0,0,0,0,1.9385,1.9401,1.9532,1.9472,1.9489,1.9517,1.9553,1.9557,1.958,1.9613,1.9618,1.9585,1.9648,1.966,1.9729,1.9765,1.9702,1.9707,1.9912,1.9916,1.9919,1.9952,0,0,0,0,0,0,1.938,1.94,1.9431,1.9473,1.9492,1.9592,1.9556,1.956,1.9589,1.9587,1.9631,1.9637,1.9647,1.9721,1.9735,1.9771,1.9712,1.9909,1.9913,1.9918,1.9948,1.9956,1.9963,0,0,0,0,0,1.9374,1.9437,1.9432,1.9448,1.9531,1.9594,1.9605,1.9615,1.9592,1.9623,1.9644,1.9635,1.9759,1.9728,1.9743,1.9783,1.9907,1.9912,1.9917,1.9944,1.9954,1.9963,0,0,0,0,0,0,1.9398,1.9443,1.9438,1.9516,1.9551,1.9592,1.9631,1.9626,1.9669,1.9664,1.9675,1.9686,1.9755,1.9776,1.9741,1.986,1.9829,1.9838,1.9844,1.9854,1.9862,1.9856,1.9716,0,0,0,0,0,1.9413,1.946,1.9496,1.9562,1.958,1.9602,1.963,1.9635,1.9672,1.9687,1.9713,1.9749,1.9795,1.9826,1.9871,1.9951,1.9959,1.9985,1.9993,1.9999,2.0006,2.0048,2.0059,1.9938,1.9938,1.9938,0,0,1.9443,1.9473,1.9503,1.9568,1.9596,1.9644,1.9615,1.9668,1.9704,1.9695,1.9761,1.9782,1.9822,1.9896,1.993,1.9916,2.0042,2.0006,2.0011,2.0015,2.0055,2.0066,2.0076,1.9942,1.9941,1.9941,0,0,1.9523,1.9551,1.9608,1.9636,1.9678,1.9692,1.9706,1.9746,1.9759,1.9826,1.982,1.9862,1.9943,1.9972,1.9997,2.0085,2.0078,2.01,2.0141,2.0181,2.0191,2.0199,2.0229,2.024,2.0107,2.0107,2.0107,0,1.9556,1.9629,1.9638,1.9691,1.9719,1.9712,1.9769,1.9796,1.9851,1.987,1.9853,1.9953,1.998,2.006,2.0081,2.0102,2.0117,2.0095,2.0189,2.0197,2.0205,2.0234,2.0246,2.0109,2.0109,2.0109,2.0109,0,1.9666,1.9716,1.9757,1.9809,1.9842,1.9897,1.9914,1.9946,1.9947,1.9963,2.003,2.0062,2.0112,2.0131,2.0134,2.0211,2.02,2.0186,2.0155,2.0219,2.0246,2.0257,2.0113,2.0112,2.0111,2.011,0,0,1.9764,1.9819,1.9834,1.9857,1.9902,1.9941,1.9995,2.0043,2.007,2.0107,2.0152,2.022,2.0206,2.0234,2.024,2.0275,2.0341,2.0256,2.0257,2.027,2.0427,2.0437,2.0449,2.0337,2.0339,2.0341,2.0423,0,1.9848,1.9943,1.9952,2.0037,2.0083,2.0076,2.0122,2.0155,2.017,2.0211,2.0228,2.0275,2.0254,2.0271,2.0306,2.0326,2.0373,2.032,2.0378,2.038,2.0367,2.0464,2.0475,2.0551,2.0434,2.0435,2.0437,0,1.9958,1.9997,2.0087,2.0123,2.0143,2.0185,2.0229,2.0269,2.0304,2.0313,2.0344,2.0344,2.0398,2.0365,2.044,2.0404,2.0428,2.0441,2.0444,2.0449,2.0412,2.0471,2.0576,2.0587,2.0454,2.0453,2.0451,0,2.0019,2.0095,2.0158,2.0177,2.0222,2.0251,2.0271,2.0305,2.0333,2.0372,2.039,2.0434,2.0459,2.0493,2.0505,2.048,2.0578,2.0547,2.0586,2.0586,2.0607,2.0606,2.0717,2.0624,2.0624,2.0624,2.0623,0,2.0111,2.0166,2.0185,2.0224,2.0284,2.0294,2.0353,2.0372,2.0401,2.0442,2.044,2.0478,2.0492,2.0533,2.0542,2.0602,2.0613,2.0621,2.0623,2.0621,2.062,2.0636,2.0631,2.0627,2.0626,2.0625,2.0625,0,2.019,2.0206,2.0273,2.0309,2.0319,2.0362,2.0393,2.043,2.0444,2.0496,2.0509,2.0531,2.0579,2.0594,2.0652,2.0658,2.0727,2.0725,2.0715,2.0715,2.0754,2.075,2.0879,2.0896,2.0793,2.0794,2.0794,0,2.0247,2.0289,2.0329,2.0356,2.0377,2.0421,2.0449,2.0459,2.0489,2.0531,2.0563,2.061,2.0648,2.0724,2.0746,2.0789,2.0787,2.083,2.0794,2.079,2.0787,2.0784,2.0787,2.0836,2.0837,2.0838,2.0839,0,2.0347,2.0352,2.0393,2.0436,2.0469,2.0504,2.0537,2.0559,2.0574,2.0607,2.0655,2.0685,2.0743,2.0789,2.0834,2.0854,2.0849,2.085,2.0861,2.086,2.0852,2.0855,2.0733,2.0847,2.0846,2.0846,2.0845,2.0845,2.0416,2.0452,2.0485,2.053,2.0555,2.0586,2.0622,2.064,2.068,2.0728,2.0732,2.0783,2.0816,2.0875,2.0897,2.0937,2.0925,2.0942,2.0946,2.095,2.0952,2.0846,2.0946,2.0946,2.0945,2.0945,2.0945,0,2.0514,2.0535,2.0576,2.0622,2.0656,2.0648,2.0684,2.0714,2.0759,2.079,2.0827,2.0882,2.0926,2.0951,2.0995,2.1022,2.1021,2.1034,2.1031,2.1036,2.0961,2.0947,2.1034,2.1034,2.1034,2.1034,2.1034,2.1034,2.0569,2.0629,2.0638,2.071,2.073,2.078,2.0801,2.0829,2.0853,2.0914,2.0951,2.0966,2.0994,2.104,2.108,2.1086,2.1102,2.1116,2.112,2.105,2.1041,2.1032,2.1019,2.1119,2.1119,2.1191,2.1192,2.1192]}]]